Regional Weather Roundup
Issued by NWS Sterling, VA

Home | Current Version | Previous Version | Graphics & Text | Print | Product List | Glossary On
Versions: 1 2 3 4 5 6 7 8 9 10 11 12 13 14 15 16 17 18 19 20 21 22 23 24 25 26 27 28 29 30 31 32 33 34 35 36 37 38 39 40 41 42 43 44 45 46 47 48 49 50
000
ASUS41 KLWX 020210
RWRLWX

REGIONAL WEATHER ROUNDUP
NATIONAL WEATHER SERVICE BALTIMORE MD/WASHINGTON DC
900 PM EST SUN MAR 01 2015

Note: "FAIR" indicates few or no clouds below 12,000 feet
with no significant weather and/or obstructions to visibility.
 TC=TEMPERATURE CELSIUS

 * =Non NWS site. Station does not report precipitation (e.g. rain,
    snow, etc.), thunder, or fog.

DCZ001-MDZ009-015-VAZ040>042-051-053>054-020300-
WASHINGTON METRO

CITY           SKY/WX    TMP DP  RH WIND       PRES   REMARKS
WASHINGTON NAT LGT RAIN  34  29  82 SW7       30.27F
DULLES         FOG       31  29  92 CALM      30.24F VSB 1
ANDREWS AFB    CLOUDY    32  31  96 CALM      30.24F
FT BELVOIR     CLOUDY    31  30  94 CALM      30.26F
QUANTICO       CLOUDY    32  29  88 S5        30.28F
COLLEGE PARK*  CLOUDY    32  32 100 CALM      30.26F
LEESBURG*      CLOUDY    32  32 100 CALM      30.24F
GAITHERSBURG*  CLOUDY    30  27  86 CALM      30.27F

$$

MDZ006>007-011-014-020300-
BALTIMORE METRO

CITY           SKY/WX    TMP DP  RH WIND       PRES   REMARKS
BWI AIRPORT    CLOUDY    32  30  92 SW3       30.25F
MD SCIENCE CTR   N/A      1  32 100 MISG      30.26F
MARTIN STATE   CLOUDY    32  30  93 SE3       30.27F
ANNAPOLIS      CLOUDY    30  28  92 MISG      30.26F
FORT MEADE*    CLOUDY    32  32 100 CALM      30.28F

$$

MDZ012-015-019>023-020300-
MARYLAND EASTERN SHORE

CITY           SKY/WX    TMP DP  RH WIND       PRES   REMARKS
OCEAN CITY     CLOUDY    32  31  96 S6        30.25F FOG
SALISBURY      CLOUDY    35  31  85 SW5       30.26F
BAY BRIDGE AP*   N/A     32  32 100 CALM      30.27F
EASTON*        CLOUDY    32  32 100 SW3       30.31F

$$

MDZ017>025-020300-
SOUTHERN MARYLAND

CITY           SKY/WX    TMP DP  RH WIND       PRES   REMARKS
PATUXENT RIVER CLOUDY    31  29  92 NW3       30.29F
ST INIGOES     CLOUDY    31  28  89 CALM      30.28R
LEONARDTOWN*   CLOUDY    32  30  93 CALM      30.28F

$$

MDZ003>005-020300-
NORTH CENTRAL MARYLAND

CITY           SKY/WX    TMP DP  RH WIND       PRES   REMARKS
FREDERICK*     CLOUDY    32  28  86 CALM      30.26F
HAGERSTOWN APT CLOUDY    31  27  85 W3        30.20F
WESTMINSTER*   CLOUDY    30  28  93 SW5       30.20F

$$

MDZ501>502-020300-
WESTERN MARYLAND

CITY           SKY/WX    TMP DP  RH WIND       PRES   REMARKS
OAKLAND*       CLOUDY    34 N/A N/A W14G26    30.12F HAZE    WCI  24
CUMBERLAND*    CLOUDY    32  30  93 CALM      30.24S

$$

VAZ025>031-020300-
SHENANDOAH VALLEY

CITY           SKY/WX    TMP DP  RH WIND       PRES   REMARKS
WINCHESTER*    CLOUDY    32  28  86 CALM      30.18F
FRONT ROYAL*   MOCLDY    30  28  93 CALM      30.19F
LURAY*         MOCLDY    34  34 100 CALM      30.19S
NEW MARKET*    CLOUDY    34  31  88 CALM      30.18F
STAUNTON*      MOCLDY    38  32  79 S3        30.21F
WAYNESBORO*    FAIR      35  32  88 CALM      30.19F

$$

WVZ021-048>050-054>055-020300-
EASTERN WEST VIRGINIA PANHANDLE

CITY           SKY/WX    TMP DP  RH WIND       PRES   REMARKS
MARTINSBURG    CLOUDY    32  28  85 CALM      30.20F FOG
PETERSBURG*    NOT AVBL

$$

VAZ036>039-050-020300-
CENTRAL FOOTHILLS

CITY           SKY/WX    TMP DP  RH WIND       PRES   REMARKS
CHARLOTTESVILL MOCLDY    31  30  96 S8        30.22F FOG     WCI  23
CULPEPER*      CLOUDY    34  32  93 CALM      30.25F FOG
ORANGE*        CLOUDY    32  32 100 S7        30.26F FOG
GORDONSVILLE*  CLOUDY    32  31  96 SW7       30.24F FOG
WARRENTON*     CLOUDY    33  33 100 CALM      30.24F

$$

VAZ055>057-020300-
NORTH AND CENTRAL PIEDMONT

CITY           SKY/WX    TMP DP  RH WIND       PRES   REMARKS
FREDERICKSBRG* CLOUDY    33  33 100 CALM      30.26F
STAFFORD*      CLOUDY    32  32 100 CALM      30.30F FOG

$$

NCZ024-NYZ072-PAZ021-071-VAZ022-071-020300-
OTHER REGIONAL OBSERVATIONS

CITY           SKY/WX    TMP DP  RH WIND       PRES   REMARKS
NEW YORK CITY  CLOUDY    27  22  81 CALM      30.27F HAZE
PHILADELPHIA   FRZ RAIN  31  29  92 SW3       30.25F FOG
PITTSBURGH     LGT SNOW  33  32  96 W6        30.16F FOG
ROANOKE        MOCLDY    35  28  75 CALM      30.28F
RICHMOND       CLOUDY    33  30  88 SW7       30.30F FOG
RALEIGH        CLOUDY    34  32  92 CALM      30.34F FOG

$$

ANZ530>537-020300-
MARINE OBSERVATIONS

STATION/POSITION TIME  TEMP    WIND        PRES
                       AIR SEA DIR/SP/G
                 (UTC) (F)     (DEG/KT/KT) (MB)
THOMAS PT LIGHT  NOT AVBL
BALT KEY BRIDGE  0100   30        CALM     1025.8F
COVE POINT       0100   29        CALM     1025.3F
LEWISETTA        0100   32 33              1025.2F
SOLOMONS ISLAND  0100      32                N/A

$$



USA.gov is the U.S. government's official web portal to all federal, state and local government web resources and services.